User: anonymous   Login
Location: Arrakis Observatory
(44.1122°N, 95.7153°W)
Time: 23:44:01
(UTC-05:00)
Language:

Iridium 35 - Orbit

View from above orbital plane
View from above orbital plane
View from above satellite
View from above satellite

Ground track
Ground track

The orbit data is extracted from the following two-line orbital elements,

1 24966U 97056B   16239.50270302 -.00000034  00000-0 -19209-4 0  9998
2 24966  86.3921  81.9049 0002067  82.2265 277.9165 14.34216627990291
Epoch (UTC): 26 August 2016 12:03:53
Eccentricity: 0.0002067
inclination: 86.3921°
perigee height: 776 km
apogee height: 779 km
right ascension of ascending node: 81.9049°
argument of perigee: 82.2265°
revolutions per day: 14.34216627
mean anomaly at epoch: 277.9165°
orbit number at epoch: 99029

The dashed part of the orbit path shows where the satellite is in the earth's shadow,  

DLR